Volk, WI

4:41 PM CDT on May 22, 2017 (GMT -0500)
Volk

Weather History for KVOK - June, 2013

Change the Weather History Date:

Saturday, June 29, 2013

  Actual Average Record
Temperature  
Mean Temperature 64 °F -  
Max Temperature 71 °F 77 °F 88 °F (2012)
Min Temperature 58 °F 62 °F 41 °F (2007)
Degree Days  
Heating Degree Days 2    
Growing Degree Days 14 (Base 50)    
Moisture  
Dew Point 61 °F    
Average Humidity 90    
Maximum Humidity 100    
Minimum Humidity 68    
Precipitation  
Precipitation 0.01 in - - ()
Sea Level Pressure  
Sea Level Pressure 29.76 in    
Wind  
Wind Speed 6 mph (North)    
Max Wind Speed 15 mph    
Max Gust Speed 24 mph    
Visibility 10 miles    
Events Rain    
Averages and records for this station are not official NWS values.
T = Trace of Precipitation, MM = Missing Value Source: NWS Daily Summary

Daily Weather History Graph

Daily Weather History Graph

Search for Another Location

Airport or City:

Trip Planner

Search our weather history database for the weather conditions in past years. The results will help you decide how hot, cold, wet, or windy it might be!

Date:

Astronomy

Jun. 29, 2013 Rise Set
Actual Time 5:21 AM CDT 8:47 PM CDT
Civil Twilight 4:45 AM CDT 9:23 PM CDT
Nautical Twilight 3:57 AM CDT 10:10 PM CDT
Astronomical Twilight 2:58 AM CDT 11:10 PM CDT
Moon 12:02 AM CDT (6/29) 12:48 PM CDT (6/29)
Length of Visible Light 16h 38m
Length of Day
15h 26m
Waning Gibbous, 55% of the Moon is Illuminated
Jun 29
Waning Gibbous
Jun 29
Last Quarter
Jul 8
New
Jul 15
First Quarter
Jul 22
Full

Hourly Weather History & Observations

Time (CDT) Temp. Dew Point Humidity Pressure Visibility Wind Dir Wind Speed Gust Speed Precip Events Conditions
12:05 AM 64.4 °F 64.4 °F 100% 29.69 in 10.0 mi NW 3.5 mph - N/A   Mostly Cloudy
12:12 AM 64.4 °F 64.4 °F 100% 29.69 in 10.0 mi NNW 2.3 mph - N/A   Mostly Cloudy
12:17 AM 64.4 °F 64.4 °F 100% 29.69 in 10.0 mi NW 3.5 mph - N/A   Mostly Cloudy
12:22 AM 64.4 °F 64.4 °F 100% 29.69 in 10.0 mi NW 4.6 mph - N/A   Mostly Cloudy
12:32 AM 64.4 °F 64.4 °F 100% 29.69 in 10.0 mi NNW 3.5 mph - N/A   Mostly Cloudy
12:34 AM 64.4 °F 64.4 °F 100% 29.69 in 10.0 mi NW 2.3 mph - N/A   Mostly Cloudy
12:58 AM 64.0 °F 64.0 °F 100% 29.69 in 10.0 mi NW 2.3 mph - 0.00 in   Overcast
1:55 AM 62.6 °F 62.6 °F 100% 29.69 in 8.0 mi NNW 2.3 mph - N/A Rain Light Rain
1:58 AM 62.6 °F 62.6 °F 100% 29.69 in 7.0 mi NNW 4.6 mph - N/A Rain Light Rain
2:03 AM 64.4 °F 64.4 °F 100% 29.69 in 7.0 mi North 6.9 mph - N/A Rain Light Rain
2:08 AM 64.4 °F 64.4 °F 100% 29.69 in 10.0 mi North 6.9 mph - N/A Rain Light Rain
2:09 AM 64.4 °F 64.4 °F 100% 29.69 in 10.0 mi North 5.8 mph - N/A   Mostly Cloudy
2:54 AM 62.6 °F 62.6 °F 100% 29.69 in 10.0 mi North 4.6 mph - N/A   Mostly Cloudy
2:58 AM 63.0 °F 63.0 °F 100% 29.69 in 10.0 mi North 4.6 mph - 0.01 in   Mostly Cloudy
3:28 AM 62.6 °F 62.6 °F 100% 29.69 in 10.0 mi North 5.8 mph - N/A   Scattered Clouds
3:58 AM 61.2 °F 61.2 °F 100% 29.69 in 10.0 mi NNW 3.5 mph - N/A   Partly Cloudy
4:58 AM 58.8 °F 58.8 °F 100% 29.70 in 10.0 mi WNW 2.3 mph - N/A   Clear
5:37 AM 59.0 °F 59.0 °F 100% 29.71 in 10.0 mi NNW 4.6 mph - N/A   Partly Cloudy
5:58 AM 59.5 °F 59.5 °F 100% 29.72 in 10.0 mi North 5.8 mph - N/A   Mostly Cloudy
6:58 AM 61.3 °F 61.3 °F 100% 29.73 in 10.0 mi NNW 6.9 mph - N/A   Mostly Cloudy
7:23 AM 62.6 °F 62.6 °F 100% 29.73 in 10.0 mi North 5.8 mph - N/A   Mostly Cloudy
7:58 AM 62.8 °F 61.7 °F 96% 29.73 in 10.0 mi North 5.8 mph - N/A   Overcast
8:34 AM 64.4 °F 62.6 °F 94% 29.74 in 10.0 mi NE 8.1 mph - N/A   Mostly Cloudy
8:58 AM 64.4 °F 62.6 °F 94% 29.75 in 10.0 mi Variable 5.8 mph - N/A   Mostly Cloudy
9:50 AM 64.4 °F 60.8 °F 88% 29.75 in 10.0 mi NE 8.1 mph - N/A   Overcast
9:58 AM 64.4 °F 60.8 °F 88% 29.75 in 10.0 mi NE 4.6 mph - N/A   Overcast
10:28 AM 66.2 °F 60.8 °F 83% 29.75 in 10.0 mi North 12.7 mph - N/A Rain Light Rain
10:53 AM 64.4 °F 62.6 °F 94% 29.76 in 10.0 mi North 8.1 mph - N/A Rain Light Rain
10:58 AM 64.4 °F 62.6 °F 94% 29.77 in 10.0 mi North 8.1 mph - N/A Rain Light Rain
11:48 AM 62.6 °F 62.6 °F 100% 29.78 in 10.0 mi NNE 5.8 mph - N/A   Overcast
11:58 AM 64.4 °F 62.6 °F 94% 29.79 in 10.0 mi NE 8.1 mph - N/A   Overcast
12:27 PM 66.2 °F 60.8 °F 83% 29.78 in 10.0 mi NNE 15.0 mph 24.2 mph N/A   Light Drizzle
12:36 PM 64.4 °F 60.8 °F 88% 29.78 in 10.0 mi NE 15.0 mph 18.4 mph N/A   Overcast
12:58 PM 66.2 °F 60.8 °F 83% 29.79 in 10.0 mi NE 12.7 mph 18.4 mph N/A   Overcast
1:52 PM 66.2 °F 57.2 °F 73% 29.81 in 10.0 mi NE 12.7 mph 19.6 mph N/A   Mostly Cloudy
1:58 PM 66.2 °F 57.2 °F 73% 29.82 in 10.0 mi NE 10.4 mph 19.6 mph N/A   Mostly Cloudy
2:58 PM 69.8 °F 59.0 °F 68% 29.81 in 10.0 mi North 8.1 mph - N/A   Overcast
3:58 PM 69.8 °F 61.2 °F 74% 29.81 in 10.0 mi NNW 10.4 mph - N/A   Scattered Clouds
4:09 PM 69.8 °F 60.8 °F 73% 29.81 in 10.0 mi North 10.4 mph 20.7 mph N/A Rain Light Rain
4:19 PM 68.0 °F 60.8 °F 78% 29.81 in 10.0 mi North 10.4 mph - N/A   Mostly Cloudy
4:58 PM 69.1 °F 60.6 °F 74% 29.82 in 10.0 mi North 11.5 mph - 0.00 in   Mostly Cloudy
5:58 PM 69.3 °F 61.5 °F 76% 29.83 in 10.0 mi NNW 6.9 mph - N/A   Mostly Cloudy
6:46 PM 68.0 °F 60.8 °F 78% 29.83 in 10.0 mi NW 4.6 mph - N/A Rain Light Rain
6:55 PM 66.2 °F 60.8 °F 83% 29.83 in 10.0 mi NNW 4.6 mph - N/A   Mostly Cloudy
6:58 PM 66.2 °F 60.8 °F 83% 29.84 in 10.0 mi NNW 5.8 mph - 0.00 in   Mostly Cloudy
7:58 PM 68.5 °F 59.2 °F 72% 29.84 in 10.0 mi North 5.8 mph - N/A   Mostly Cloudy
8:58 PM 64.4 °F 57.7 °F 79% 29.87 in 10.0 mi NNW 5.8 mph - N/A   Clear
9:58 PM 63.0 °F 56.5 °F 79% 29.89 in 10.0 mi Variable 4.6 mph - N/A   Mostly Cloudy
10:58 PM 62.2 °F 56.1 °F 80% 29.90 in 10.0 mi NNW 4.6 mph - N/A   Mostly Cloudy
11:58 PM 61.3 °F 55.6 °F 81% 29.91 in 10.0 mi North 5.8 mph - N/A   Mostly Cloudy